Year,Month,Day,Hour,Minute,Value (Times are PST for insolation in W/m^2)
2014,12,11,00,00,0.00
2014,12,11,00,01,0.00
2014,12,11,00,02,0.00
2014,12,11,00,03,0.00
2014,12,11,00,04,0.00
2014,12,11,00,05,0.00
2014,12,11,00,06,0.00
2014,12,11,00,07,0.00
2014,12,11,00,08,0.00
2014,12,11,00,09,0.00
2014,12,11,00,10,0.00
2014,12,11,00,11,0.00
2014,12,11,00,12,0.00
2014,12,11,00,13,0.00
2014,12,11,00,14,0.00
2014,12,11,00,15,0.00
2014,12,11,00,16,0.00
2014,12,11,00,17,0.00
2014,12,11,00,18,0.00
2014,12,11,00,19,0.00
2014,12,11,00,20,0.00
2014,12,11,00,21,0.00
2014,12,11,00,22,0.00
2014,12,11,00,23,0.00
2014,12,11,00,24,0.00
2014,12,11,00,25,0.00
2014,12,11,00,26,0.00
2014,12,11,00,27,0.00
2014,12,11,00,28,0.00
2014,12,11,00,29,0.00
2014,12,11,00,30,0.00
2014,12,11,00,31,0.00
2014,12,11,00,32,0.00
2014,12,11,00,33,0.00
2014,12,11,00,34,0.00
2014,12,11,00,35,0.00
2014,12,11,00,36,0.00
2014,12,11,00,37,0.00
2014,12,11,00,38,0.00
2014,12,11,00,39,0.00
2014,12,11,00,40,0.00
2014,12,11,00,41,0.00
2014,12,11,00,42,0.00
2014,12,11,00,43,0.00
2014,12,11,00,44,0.00
2014,12,11,00,45,0.00
2014,12,11,00,46,0.00
2014,12,11,00,47,0.00
2014,12,11,00,48,0.00
2014,12,11,00,49,0.00
2014,12,11,00,50,0.00
2014,12,11,00,51,0.00
2014,12,11,00,52,0.00
2014,12,11,00,53,0.00
2014,12,11,00,54,0.00
2014,12,11,00,55,0.00
2014,12,11,00,56,0.00
2014,12,11,00,57,0.00
2014,12,11,00,58,0.00
2014,12,11,00,59,0.00
2014,12,11,01,00,0.00
2014,12,11,01,01,0.00
2014,12,11,01,02,0.00
2014,12,11,01,03,0.00
2014,12,11,01,04,0.00
2014,12,11,01,05,0.00
2014,12,11,01,06,0.00
2014,12,11,01,07,0.00
2014,12,11,01,08,0.00
2014,12,11,01,09,0.00
2014,12,11,01,10,0.00
2014,12,11,01,11,0.00
2014,12,11,01,12,0.00
2014,12,11,01,13,0.00
2014,12,11,01,14,0.00
2014,12,11,01,15,0.00
2014,12,11,01,16,0.00
2014,12,11,01,17,0.00
2014,12,11,01,18,0.00
2014,12,11,01,19,0.00
2014,12,11,01,20,0.00
2014,12,11,01,21,0.00
2014,12,11,01,22,0.00
2014,12,11,01,23,0.00
2014,12,11,01,24,0.00
2014,12,11,01,25,0.00
2014,12,11,01,26,0.00
2014,12,11,01,27,0.00
2014,12,11,01,28,0.00
2014,12,11,01,29,0.00
2014,12,11,01,30,0.00
2014,12,11,01,31,0.00
2014,12,11,01,32,0.00
2014,12,11,01,33,0.00
2014,12,11,01,34,0.00
2014,12,11,01,35,0.00
2014,12,11,01,36,0.00
2014,12,11,01,37,0.00
2014,12,11,01,38,0.00
2014,12,11,01,39,0.00
2014,12,11,01,40,0.00
2014,12,11,01,41,0.00
2014,12,11,01,42,0.00
2014,12,11,01,43,0.00
2014,12,11,01,44,0.00
2014,12,11,01,45,0.00
2014,12,11,01,46,0.00
2014,12,11,01,47,0.00
2014,12,11,01,48,0.00
2014,12,11,01,49,0.00
2014,12,11,01,50,0.00
2014,12,11,01,51,0.00
2014,12,11,01,52,0.00
2014,12,11,01,53,0.00
2014,12,11,01,54,0.00
2014,12,11,01,55,0.00
2014,12,11,01,56,0.00
2014,12,11,01,57,0.00
2014,12,11,01,58,0.00
2014,12,11,01,59,0.00
2014,12,11,02,00,0.00
2014,12,11,02,01,0.00
2014,12,11,02,02,0.00
2014,12,11,02,03,0.00
2014,12,11,02,04,0.00
2014,12,11,02,05,0.00
2014,12,11,02,06,0.00
2014,12,11,02,07,0.00
2014,12,11,02,08,0.00
2014,12,11,02,09,0.00
2014,12,11,02,10,0.00
2014,12,11,02,11,0.00
2014,12,11,02,12,0.00
2014,12,11,02,13,0.00
2014,12,11,02,14,0.00
2014,12,11,02,15,0.00
2014,12,11,02,16,0.00
2014,12,11,02,17,0.00
2014,12,11,02,18,0.00
2014,12,11,02,19,0.00
2014,12,11,02,20,0.00
2014,12,11,02,21,0.00
2014,12,11,02,22,0.00
2014,12,11,02,23,0.00
2014,12,11,02,24,0.00
2014,12,11,02,25,0.00
2014,12,11,02,26,0.00
2014,12,11,02,27,0.00
2014,12,11,02,28,0.00
2014,12,11,02,29,0.00
2014,12,11,02,30,0.00
2014,12,11,02,31,0.00
2014,12,11,02,32,0.00
2014,12,11,02,33,0.00
2014,12,11,02,34,0.00
2014,12,11,02,35,0.00
2014,12,11,02,36,0.00
2014,12,11,02,37,0.00
2014,12,11,02,38,0.00
2014,12,11,02,39,0.00
2014,12,11,02,40,0.00
2014,12,11,02,41,0.00
2014,12,11,02,42,0.00
2014,12,11,02,43,0.00
2014,12,11,02,44,0.00
2014,12,11,02,45,0.00
2014,12,11,02,46,0.00
2014,12,11,02,47,0.00
2014,12,11,02,48,0.00
2014,12,11,02,49,0.00
2014,12,11,02,50,0.00
2014,12,11,02,51,0.00
2014,12,11,02,52,0.00
2014,12,11,02,53,0.00
2014,12,11,02,54,0.00
2014,12,11,02,55,0.00
2014,12,11,02,56,0.00
2014,12,11,02,57,0.00
2014,12,11,02,58,0.00
2014,12,11,02,59,0.00
2014,12,11,03,00,0.00
2014,12,11,03,01,0.00
2014,12,11,03,02,0.00
2014,12,11,03,03,0.00
2014,12,11,03,04,0.00
2014,12,11,03,05,0.00
2014,12,11,03,06,0.00
2014,12,11,03,07,0.00
2014,12,11,03,08,0.00
2014,12,11,03,09,0.00
2014,12,11,03,10,0.00
2014,12,11,03,11,0.00
2014,12,11,03,12,0.00
2014,12,11,03,13,0.00
2014,12,11,03,14,0.00
2014,12,11,03,15,0.00
2014,12,11,03,16,0.00
2014,12,11,03,17,0.00
2014,12,11,03,18,0.00
2014,12,11,03,19,0.00
2014,12,11,03,20,0.00
2014,12,11,03,21,0.00
2014,12,11,03,22,0.00
2014,12,11,03,23,0.00
2014,12,11,03,24,0.00
2014,12,11,03,25,0.00
2014,12,11,03,26,0.00
2014,12,11,03,27,0.00
2014,12,11,03,28,0.00
2014,12,11,03,29,0.00
2014,12,11,03,30,0.00
2014,12,11,03,31,0.00
2014,12,11,03,32,0.00
2014,12,11,03,33,0.00
2014,12,11,03,34,0.00
2014,12,11,03,35,0.00
2014,12,11,03,36,0.00
2014,12,11,03,37,0.00
2014,12,11,03,38,0.00
2014,12,11,03,39,0.00
2014,12,11,03,40,0.00
2014,12,11,03,41,0.00
2014,12,11,03,42,0.00
2014,12,11,03,43,0.00
2014,12,11,03,44,0.00
2014,12,11,03,45,0.00
2014,12,11,03,46,0.00
2014,12,11,03,47,0.00
2014,12,11,03,48,0.00
2014,12,11,03,49,0.00
2014,12,11,03,50,0.00
2014,12,11,03,51,0.00
2014,12,11,03,52,0.00
2014,12,11,03,53,0.00
2014,12,11,03,54,0.00
2014,12,11,03,55,0.00
2014,12,11,03,56,0.00
2014,12,11,03,57,0.00
2014,12,11,03,58,0.00
2014,12,11,03,59,0.00
2014,12,11,04,00,0.00
2014,12,11,04,01,0.00
2014,12,11,04,02,0.00
2014,12,11,04,03,0.00
2014,12,11,04,04,0.00
2014,12,11,04,05,0.00
2014,12,11,04,06,0.00
2014,12,11,04,07,0.00
2014,12,11,04,08,0.00
2014,12,11,04,09,0.00
2014,12,11,04,10,0.00
2014,12,11,04,11,0.00
2014,12,11,04,12,0.00
2014,12,11,04,13,0.00
2014,12,11,04,14,0.00
2014,12,11,04,15,0.00
2014,12,11,04,16,0.00
2014,12,11,04,17,0.00
2014,12,11,04,18,0.00
2014,12,11,04,19,0.00
2014,12,11,04,20,0.00
2014,12,11,04,21,0.00
2014,12,11,04,22,0.00
2014,12,11,04,23,0.00
2014,12,11,04,24,0.00
2014,12,11,04,25,0.00
2014,12,11,04,26,0.00
2014,12,11,04,27,0.00
2014,12,11,04,28,0.00
2014,12,11,04,29,0.00
2014,12,11,04,30,0.00
2014,12,11,04,31,0.00
2014,12,11,04,32,0.00
2014,12,11,04,33,0.00
2014,12,11,04,34,0.00
2014,12,11,04,35,0.00
2014,12,11,04,36,0.00
2014,12,11,04,37,0.00
2014,12,11,04,38,0.00
2014,12,11,04,39,0.00
2014,12,11,04,40,0.00
2014,12,11,04,41,0.00
2014,12,11,04,42,0.00
2014,12,11,04,43,0.00
2014,12,11,04,44,0.00
2014,12,11,04,45,0.00
2014,12,11,04,46,0.00
2014,12,11,04,47,0.00
2014,12,11,04,48,0.00
2014,12,11,04,49,0.00
2014,12,11,04,50,0.00
2014,12,11,04,51,0.00
2014,12,11,04,52,0.00
2014,12,11,04,53,0.00
2014,12,11,04,54,0.00
2014,12,11,04,55,0.00
2014,12,11,04,56,0.00
2014,12,11,04,57,0.00
2014,12,11,04,58,0.00
2014,12,11,04,59,0.00
2014,12,11,05,00,0.00
2014,12,11,05,01,0.00
2014,12,11,05,02,0.00
2014,12,11,05,03,0.00
2014,12,11,05,04,0.00
2014,12,11,05,05,0.00
2014,12,11,05,06,0.00
2014,12,11,05,07,0.00
2014,12,11,05,08,0.00
2014,12,11,05,09,0.00
2014,12,11,05,10,0.00
2014,12,11,05,11,0.00
2014,12,11,05,12,0.00
2014,12,11,05,13,0.00
2014,12,11,05,14,0.00
2014,12,11,05,15,0.00
2014,12,11,05,16,0.00
2014,12,11,05,17,0.00
2014,12,11,05,18,0.00
2014,12,11,05,19,0.00
2014,12,11,05,20,0.00
2014,12,11,05,21,0.00
2014,12,11,05,22,0.00
2014,12,11,05,23,0.00
2014,12,11,05,24,0.00
2014,12,11,05,25,0.00
2014,12,11,05,26,0.00
2014,12,11,05,27,0.00
2014,12,11,05,28,0.00
2014,12,11,05,29,0.00
2014,12,11,05,30,0.00
2014,12,11,05,31,0.00
2014,12,11,05,32,0.00
2014,12,11,05,33,0.00
2014,12,11,05,34,0.00
2014,12,11,05,35,0.00
2014,12,11,05,36,0.00
2014,12,11,05,37,0.00
2014,12,11,05,38,0.00
2014,12,11,05,39,0.00
2014,12,11,05,40,0.00
2014,12,11,05,41,0.00
2014,12,11,05,42,0.00
2014,12,11,05,43,0.00
2014,12,11,05,44,0.00
2014,12,11,05,45,0.00
2014,12,11,05,46,0.00
2014,12,11,05,47,0.00
2014,12,11,05,48,0.00
2014,12,11,05,49,0.00
2014,12,11,05,50,0.00
2014,12,11,05,51,0.00
2014,12,11,05,52,0.00
2014,12,11,05,53,0.00
2014,12,11,05,54,0.00
2014,12,11,05,55,0.00
2014,12,11,05,56,0.00
2014,12,11,05,57,0.00
2014,12,11,05,58,0.00
2014,12,11,05,59,0.00
2014,12,11,06,00,0.00
2014,12,11,06,01,0.00
2014,12,11,06,02,0.00
2014,12,11,06,03,0.00
2014,12,11,06,04,0.00
2014,12,11,06,05,0.00
2014,12,11,06,06,0.00
2014,12,11,06,07,0.00
2014,12,11,06,08,0.00
2014,12,11,06,09,0.00
2014,12,11,06,10,0.00
2014,12,11,06,11,0.00
2014,12,11,06,12,0.00
2014,12,11,06,13,0.00
2014,12,11,06,14,0.00
2014,12,11,06,15,0.00
2014,12,11,06,16,0.00
2014,12,11,06,17,0.00
2014,12,11,06,18,0.00
2014,12,11,06,19,0.00
2014,12,11,06,20,0.00
2014,12,11,06,21,0.00
2014,12,11,06,22,0.00
2014,12,11,06,23,0.00
2014,12,11,06,24,0.00
2014,12,11,06,25,0.00
2014,12,11,06,26,0.00
2014,12,11,06,27,0.00
2014,12,11,06,28,0.00
2014,12,11,06,29,0.00
2014,12,11,06,30,0.00
2014,12,11,06,31,0.00
2014,12,11,06,32,0.00
2014,12,11,06,33,0.00
2014,12,11,06,34,0.00
2014,12,11,06,35,0.00
2014,12,11,06,36,0.00
2014,12,11,06,37,0.00
2014,12,11,06,38,0.00
2014,12,11,06,39,0.00
2014,12,11,06,40,0.00
2014,12,11,06,41,0.00
2014,12,11,06,42,0.00
2014,12,11,06,43,0.00
2014,12,11,06,44,0.00
2014,12,11,06,45,0.00
2014,12,11,06,46,0.00
2014,12,11,06,47,0.00
2014,12,11,06,48,0.00
2014,12,11,06,49,0.00
2014,12,11,06,50,0.00
2014,12,11,06,51,0.00
2014,12,11,06,52,0.00
2014,12,11,06,53,0.00
2014,12,11,06,54,0.00
2014,12,11,06,55,0.00
2014,12,11,06,56,0.00
2014,12,11,06,57,0.00
2014,12,11,06,58,0.00
2014,12,11,06,59,0.00
2014,12,11,07,00,0.00
2014,12,11,07,01,0.00
2014,12,11,07,02,0.00
2014,12,11,07,03,0.00
2014,12,11,07,04,0.00
2014,12,11,07,05,0.00
2014,12,11,07,06,0.00
2014,12,11,07,07,0.00
2014,12,11,07,08,0.00
2014,12,11,07,09,0.00
2014,12,11,07,10,0.00
2014,12,11,07,11,0.00
2014,12,11,07,12,0.00
2014,12,11,07,13,0.00
2014,12,11,07,14,0.00
2014,12,11,07,15,0.00
2014,12,11,07,16,0.00
2014,12,11,07,17,0.00
2014,12,11,07,18,0.00
2014,12,11,07,19,0.00
2014,12,11,07,20,0.00
2014,12,11,07,21,0.00
2014,12,11,07,22,0.00
2014,12,11,07,23,0.00
2014,12,11,07,24,0.00
2014,12,11,07,25,0.00
2014,12,11,07,26,0.00
2014,12,11,07,27,0.00
2014,12,11,07,28,0.00
2014,12,11,07,29,0.00
2014,12,11,07,30,0.00
2014,12,11,07,31,0.00
2014,12,11,07,32,0.00
2014,12,11,07,33,0.00
2014,12,11,07,34,0.00
2014,12,11,07,35,0.00
2014,12,11,07,36,0.00
2014,12,11,07,37,0.00
2014,12,11,07,38,0.00
2014,12,11,07,39,0.00
2014,12,11,07,40,0.00
2014,12,11,07,41,0.00
2014,12,11,07,42,0.00
2014,12,11,07,43,0.00
2014,12,11,07,44,0.00
2014,12,11,07,45,0.00
2014,12,11,07,46,0.00
2014,12,11,07,47,0.00
2014,12,11,07,48,0.00
2014,12,11,07,49,0.00
2014,12,11,07,50,0.00
2014,12,11,07,51,0.00
2014,12,11,07,52,0.00
2014,12,11,07,53,0.00
2014,12,11,07,54,0.00
2014,12,11,07,55,0.00
2014,12,11,07,56,0.00
2014,12,11,07,57,0.00
2014,12,11,07,58,0.00
2014,12,11,07,59,0.00
2014,12,11,08,00,0.00
2014,12,11,08,01,0.00
2014,12,11,08,02,0.00
2014,12,11,08,03,0.00
2014,12,11,08,04,0.00
2014,12,11,08,05,0.00
2014,12,11,08,06,0.00
2014,12,11,08,07,0.00
2014,12,11,08,08,0.00
2014,12,11,08,09,0.00
2014,12,11,08,10,0.00
2014,12,11,08,11,0.00
2014,12,11,08,12,0.00
2014,12,11,08,13,0.00
2014,12,11,08,14,0.00
2014,12,11,08,15,0.00
2014,12,11,08,16,0.00
2014,12,11,08,17,0.00
2014,12,11,08,18,0.00
2014,12,11,08,19,0.00
2014,12,11,08,20,0.00
2014,12,11,08,21,0.00
2014,12,11,08,22,0.00
2014,12,11,08,23,0.00
2014,12,11,08,24,0.00
2014,12,11,08,25,0.00
2014,12,11,08,26,0.00
2014,12,11,08,27,0.00
2014,12,11,08,28,0.00
2014,12,11,08,29,0.00
2014,12,11,08,30,0.00
2014,12,11,08,31,0.00
2014,12,11,08,32,0.00
2014,12,11,08,33,0.00
2014,12,11,08,34,0.00
2014,12,11,08,35,0.00
2014,12,11,08,36,0.00
2014,12,11,08,37,0.00
2014,12,11,08,38,0.00
2014,12,11,08,39,0.00
2014,12,11,08,40,0.00
2014,12,11,08,41,2.00
2014,12,11,08,42,5.00
2014,12,11,08,43,5.00
2014,12,11,08,44,6.60
2014,12,11,08,45,7.00
2014,12,11,08,46,9.00
2014,12,11,08,47,9.00
2014,12,11,08,48,9.00
2014,12,11,08,49,9.00
2014,12,11,08,50,9.00
2014,12,11,08,51,9.00
2014,12,11,08,52,9.00
2014,12,11,08,53,9.30
2014,12,11,08,54,11.00
2014,12,11,08,55,11.00
2014,12,11,08,56,11.00
2014,12,11,08,57,11.00
2014,12,11,08,58,11.00
2014,12,11,08,59,10.90
2014,12,11,09,00,9.00
2014,12,11,09,01,8.40
2014,12,11,09,02,7.00
2014,12,11,09,03,7.00
2014,12,11,09,04,8.30
2014,12,11,09,05,9.00
2014,12,11,09,06,9.10
2014,12,11,09,07,11.00
2014,12,11,09,08,11.30
2014,12,11,09,09,12.00
2014,12,11,09,10,13.10
2014,12,11,09,11,15.40
2014,12,11,09,12,16.00
2014,12,11,09,13,17.80
2014,12,11,09,14,18.10
2014,12,11,09,15,19.00
2014,12,11,09,16,18.60
2014,12,11,09,17,18.00
2014,12,11,09,18,18.00
2014,12,11,09,19,16.50
2014,12,11,09,20,16.00
2014,12,11,09,21,16.00
2014,12,11,09,22,16.50
2014,12,11,09,23,18.00
2014,12,11,09,24,18.00
2014,12,11,09,25,18.00
2014,12,11,09,26,18.00
2014,12,11,09,27,18.00
2014,12,11,09,28,18.10
2014,12,11,09,29,19.00
2014,12,11,09,30,19.00
2014,12,11,09,31,20.00
2014,12,11,09,32,21.00
2014,12,11,09,33,21.00
2014,12,11,09,34,19.20
2014,12,11,09,35,19.00
2014,12,11,09,36,19.00
2014,12,11,09,37,19.00
2014,12,11,09,38,20.00
2014,12,11,09,39,23.50
2014,12,11,09,40,27.30
2014,12,11,09,41,31.80
2014,12,11,09,42,35.90
2014,12,11,09,43,40.60
2014,12,11,09,44,42.80
2014,12,11,09,45,44.00
2014,12,11,09,46,42.70
2014,12,11,09,47,39.50
2014,12,11,09,48,37.10
2014,12,11,09,49,34.70
2014,12,11,09,50,33.00
2014,12,11,09,51,32.60
2014,12,11,09,52,30.90
2014,12,11,09,53,28.70
2014,12,11,09,54,26.50
2014,12,11,09,55,26.00
2014,12,11,09,56,24.70
2014,12,11,09,57,22.40
2014,12,11,09,58,20.10
2014,12,11,09,59,19.00
2014,12,11,10,00,18.40
2014,12,11,10,01,16.40
2014,12,11,10,02,14.10
2014,12,11,10,03,11.80
2014,12,11,10,04,9.90
2014,12,11,10,05,7.00
2014,12,11,10,06,6.00
2014,12,11,10,07,5.00
2014,12,11,10,08,5.00
2014,12,11,10,09,5.00
2014,12,11,10,10,5.00
2014,12,11,10,11,5.60
2014,12,11,10,12,7.00
2014,12,11,10,13,8.00
2014,12,11,10,14,9.00
2014,12,11,10,15,9.00
2014,12,11,10,16,10.80
2014,12,11,10,17,11.00
2014,12,11,10,18,11.30
2014,12,11,10,19,12.00
2014,12,11,10,20,12.00
2014,12,11,10,21,12.00
2014,12,11,10,22,13.60
2014,12,11,10,23,15.90
2014,12,11,10,24,18.00
2014,12,11,10,25,18.00
2014,12,11,10,26,18.00
2014,12,11,10,27,18.00
2014,12,11,10,28,16.70
2014,12,11,10,29,16.00
2014,12,11,10,30,14.20
2014,12,11,10,31,13.70
2014,12,11,10,32,12.00
2014,12,11,10,33,12.00
2014,12,11,10,34,12.00
2014,12,11,10,35,12.00
2014,12,11,10,36,11.20
2014,12,11,10,37,11.00
2014,12,11,10,38,10.70
2014,12,11,10,39,9.00
2014,12,11,10,40,8.20
2014,12,11,10,41,7.00
2014,12,11,10,42,5.70
2014,12,11,10,43,5.00
2014,12,11,10,44,5.00
2014,12,11,10,45,5.00
2014,12,11,10,46,5.00
2014,12,11,10,47,5.00
2014,12,11,10,48,2.30
2014,12,11,10,49,0.00
2014,12,11,10,50,0.00
2014,12,11,10,51,0.00
2014,12,11,10,52,0.00
2014,12,11,10,53,0.00
2014,12,11,10,54,0.00
2014,12,11,10,55,0.00
2014,12,11,10,56,3.30
2014,12,11,10,57,5.00
2014,12,11,10,58,6.80
2014,12,11,10,59,7.30
2014,12,11,11,00,9.50
2014,12,11,11,01,11.40
2014,12,11,11,02,13.00
2014,12,11,11,03,15.30
2014,12,11,11,04,17.50
2014,12,11,11,05,18.90
2014,12,11,11,06,21.00
2014,12,11,11,07,21.00
2014,12,11,11,08,21.00
2014,12,11,11,09,19.90
2014,12,11,11,10,19.00
2014,12,11,11,11,19.00
2014,12,11,11,12,20.80
2014,12,11,11,13,21.70
2014,12,11,11,14,26.50
2014,12,11,11,15,28.00
2014,12,11,11,16,28.00
2014,12,11,11,17,28.00
2014,12,11,11,18,29.60
2014,12,11,11,19,31.80
2014,12,11,11,20,30.00
2014,12,11,11,21,29.50
2014,12,11,11,22,28.80
2014,12,11,11,23,31.60
2014,12,11,11,24,37.00
2014,12,11,11,25,41.20
2014,12,11,11,26,46.60
2014,12,11,11,27,49.80
2014,12,11,11,28,56.20
2014,12,11,11,29,63.30
2014,12,11,11,30,63.90
2014,12,11,11,31,61.00
2014,12,11,11,32,55.40
2014,12,11,11,33,53.30
2014,12,11,11,34,59.60
2014,12,11,11,35,68.40
2014,12,11,11,36,74.10
2014,12,11,11,37,77.00
2014,12,11,11,38,75.10
2014,12,11,11,39,68.60
2014,12,11,11,40,62.20
2014,12,11,11,41,55.60
2014,12,11,11,42,53.00
2014,12,11,11,43,53.00
2014,12,11,11,44,53.50
2014,12,11,11,45,55.30
2014,12,11,11,46,56.00
2014,12,11,11,47,54.20
2014,12,11,11,48,48.30
2014,12,11,11,49,42.90
2014,12,11,11,50,40.00
2014,12,11,11,51,40.00
2014,12,11,11,52,38.00
2014,12,11,11,53,33.10
2014,12,11,11,54,28.40
2014,12,11,11,55,28.70
2014,12,11,11,56,35.50
2014,12,11,11,57,44.00
2014,12,11,11,58,48.00
2014,12,11,11,59,49.00
2014,12,11,12,00,52.00
2014,12,11,12,01,61.60
2014,12,11,12,02,88.00
2014,12,11,12,03,119.00
2014,12,11,12,04,136.90
2014,12,11,12,05,140.00
2014,12,11,12,06,129.70
2014,12,11,12,07,112.60
2014,12,11,12,08,104.10
2014,12,11,12,09,95.00
2014,12,11,12,10,80.20
2014,12,11,12,11,67.30
2014,12,11,12,12,54.50
2014,12,11,12,13,45.60
2014,12,11,12,14,41.00
2014,12,11,12,15,35.50
2014,12,11,12,16,32.60
2014,12,11,12,17,28.90
2014,12,11,12,18,25.60
2014,12,11,12,19,25.00
2014,12,11,12,20,25.00
2014,12,11,12,21,25.80
2014,12,11,12,22,29.60
2014,12,11,12,23,35.50
2014,12,11,12,24,40.20
2014,12,11,12,25,46.00
2014,12,11,12,26,53.50
2014,12,11,12,27,68.90
2014,12,11,12,28,74.00
2014,12,11,12,29,96.50
2014,12,11,12,30,112.70
2014,12,11,12,31,123.50
2014,12,11,12,32,122.30
2014,12,11,12,33,111.20
2014,12,11,12,34,99.90
2014,12,11,12,35,92.40
2014,12,11,12,36,91.00
2014,12,11,12,37,90.30
2014,12,11,12,38,81.40
2014,12,11,12,39,62.60
2014,12,11,12,40,52.40
2014,12,11,12,41,53.00
2014,12,11,12,42,55.50
2014,12,11,12,43,47.90
2014,12,11,12,44,34.00
2014,12,11,12,45,27.50
2014,12,11,12,46,26.00
2014,12,11,12,47,26.00
2014,12,11,12,48,26.00
2014,12,11,12,49,22.00
2014,12,11,12,50,19.10
2014,12,11,12,51,18.00
2014,12,11,12,52,18.80
2014,12,11,12,53,21.70
2014,12,11,12,54,24.00
2014,12,11,12,55,23.70
2014,12,11,12,56,21.50
2014,12,11,12,57,18.30
2014,12,11,12,58,16.30
2014,12,11,12,59,18.80
2014,12,11,13,00,23.10
2014,12,11,13,01,29.50
2014,12,11,13,02,38.70
2014,12,11,13,03,47.30
2014,12,11,13,04,53.50
2014,12,11,13,05,58.50
2014,12,11,13,06,63.10
2014,12,11,13,07,68.80
2014,12,11,13,08,74.60
2014,12,11,13,09,78.40
2014,12,11,13,10,76.70
2014,12,11,13,11,67.20
2014,12,11,13,12,52.90
2014,12,11,13,13,44.00
2014,12,11,13,14,37.40
2014,12,11,13,15,35.00
2014,12,11,13,16,37.50
2014,12,11,13,17,39.00
2014,12,11,13,18,37.10
2014,12,11,13,19,35.00
2014,12,11,13,20,34.20
2014,12,11,13,21,29.20
2014,12,11,13,22,22.90
2014,12,11,13,23,19.70
2014,12,11,13,24,22.10
2014,12,11,13,25,20.90
2014,12,11,13,26,14.00
2014,12,11,13,27,13.50
2014,12,11,13,28,12.00
2014,12,11,13,29,12.00
2014,12,11,13,30,12.00
2014,12,11,13,31,13.60
2014,12,11,13,32,15.80
2014,12,11,13,33,15.70
2014,12,11,13,34,14.00
2014,12,11,13,35,12.20
2014,12,11,13,36,8.00
2014,12,11,13,37,7.00
2014,12,11,13,38,7.00
2014,12,11,13,39,7.00
2014,12,11,13,40,7.00
2014,12,11,13,41,7.00
2014,12,11,13,42,7.00
2014,12,11,13,43,7.00
2014,12,11,13,44,8.40
2014,12,11,13,45,10.50
2014,12,11,13,46,11.10
2014,12,11,13,47,12.00
2014,12,11,13,48,12.00
2014,12,11,13,49,12.00
2014,12,11,13,50,13.00
2014,12,11,13,51,16.70
2014,12,11,13,52,21.90
2014,12,11,13,53,25.70
2014,12,11,13,54,30.30
2014,12,11,13,55,32.30
2014,12,11,13,56,33.00
2014,12,11,13,57,32.50
2014,12,11,13,58,32.00
2014,12,11,13,59,30.40
2014,12,11,14,00,30.00
2014,12,11,14,01,32.40
2014,12,11,14,02,36.00
2014,12,11,14,03,39.40
2014,12,11,14,04,39.50
2014,12,11,14,05,36.30
2014,12,11,14,06,33.40
2014,12,11,14,07,32.90
2014,12,11,14,08,29.40
2014,12,11,14,09,24.10
2014,12,11,14,10,16.00
2014,12,11,14,11,10.00
2014,12,11,14,12,7.70
2014,12,11,14,13,7.00
2014,12,11,14,14,8.80
2014,12,11,14,15,9.00
2014,12,11,14,16,9.00
2014,12,11,14,17,9.00
2014,12,11,14,18,10.00
2014,12,11,14,19,11.70
2014,12,11,14,20,12.00
2014,12,11,14,21,15.50
2014,12,11,14,22,19.80
2014,12,11,14,23,25.00
2014,12,11,14,24,25.40
2014,12,11,14,25,27.00
2014,12,11,14,26,29.30
2014,12,11,14,27,33.90
2014,12,11,14,28,41.30
2014,12,11,14,29,44.00
2014,12,11,14,30,42.90
2014,12,11,14,31,37.10
2014,12,11,14,32,29.30
2014,12,11,14,33,21.50
2014,12,11,14,34,13.60
2014,12,11,14,35,9.30
2014,12,11,14,36,9.30
2014,12,11,14,37,11.90
2014,12,11,14,38,16.00
2014,12,11,14,39,22.10
2014,12,11,14,40,29.70
2014,12,11,14,41,38.50
2014,12,11,14,42,41.80
2014,12,11,14,43,39.90
2014,12,11,14,44,39.00
2014,12,11,14,45,40.20
2014,12,11,14,46,44.70
2014,12,11,14,47,51.70
2014,12,11,14,48,54.00
2014,12,11,14,49,49.50
2014,12,11,14,50,41.30
2014,12,11,14,51,35.10
2014,12,11,14,52,28.40
2014,12,11,14,53,26.00
2014,12,11,14,54,26.00
2014,12,11,14,55,29.00
2014,12,11,14,56,32.70
2014,12,11,14,57,32.90
2014,12,11,14,58,32.70
2014,12,11,14,59,33.80
2014,12,11,15,00,28.30
2014,12,11,15,01,21.20
2014,12,11,15,02,16.70
2014,12,11,15,03,12.40
2014,12,11,15,04,11.00
2014,12,11,15,05,11.00
2014,12,11,15,06,11.00
2014,12,11,15,07,11.50
2014,12,11,15,08,13.40
2014,12,11,15,09,14.00
2014,12,11,15,10,12.30
2014,12,11,15,11,11.40
2014,12,11,15,12,15.60
2014,12,11,15,13,23.70
2014,12,11,15,14,31.80
2014,12,11,15,15,37.50
2014,12,11,15,16,37.50
2014,12,11,15,17,37.00
2014,12,11,15,18,37.00
2014,12,11,15,19,37.00
2014,12,11,15,20,36.30
2014,12,11,15,21,34.00
2014,12,11,15,22,34.40
2014,12,11,15,23,35.00
2014,12,11,15,24,33.20
2014,12,11,15,25,32.00
2014,12,11,15,26,24.50
2014,12,11,15,27,23.80
2014,12,11,15,28,25.00
2014,12,11,15,29,23.80
2014,12,11,15,30,21.50
2014,12,11,15,31,21.00
2014,12,11,15,32,18.90
2014,12,11,15,33,17.50
2014,12,11,15,34,15.20
2014,12,11,15,35,15.00
2014,12,11,15,36,17.90
2014,12,11,15,37,22.00
2014,12,11,15,38,24.70
2014,12,11,15,39,22.70
2014,12,11,15,40,21.00
2014,12,11,15,41,20.20
2014,12,11,15,42,19.00
2014,12,11,15,43,17.00
2014,12,11,15,44,14.50
2014,12,11,15,45,12.20
2014,12,11,15,46,12.00
2014,12,11,15,47,12.00
2014,12,11,15,48,12.00
2014,12,11,15,49,12.00
2014,12,11,15,50,12.00
2014,12,11,15,51,12.00
2014,12,11,15,52,17.40
2014,12,11,15,53,18.00
2014,12,11,15,54,17.40
2014,12,11,15,55,16.00
2014,12,11,15,56,16.00
2014,12,11,15,57,16.00
2014,12,11,15,58,16.00
2014,12,11,15,59,16.00
2014,12,11,16,00,15.70
2014,12,11,16,01,13.40
2014,12,11,16,02,12.00
2014,12,11,16,03,11.50
2014,12,11,16,04,11.00
2014,12,11,16,05,9.60
2014,12,11,16,06,7.20
2014,12,11,16,07,5.00
2014,12,11,16,08,3.60
2014,12,11,16,09,0.00
2014,12,11,16,10,0.00
2014,12,11,16,11,0.00
2014,12,11,16,12,0.00
2014,12,11,16,13,0.00
2014,12,11,16,14,0.00
2014,12,11,16,15,0.00
2014,12,11,16,16,0.00
2014,12,11,16,17,0.00
2014,12,11,16,18,0.00
2014,12,11,16,19,0.00
2014,12,11,16,20,0.00
2014,12,11,16,21,0.00
2014,12,11,16,22,0.00
2014,12,11,16,23,0.00
2014,12,11,16,24,0.00
2014,12,11,16,25,0.00
2014,12,11,16,26,0.00
2014,12,11,16,27,0.00
2014,12,11,16,28,0.00
2014,12,11,16,29,0.00
2014,12,11,16,30,0.00
2014,12,11,16,31,0.00
2014,12,11,16,32,0.00
2014,12,11,16,33,0.00
2014,12,11,16,34,0.00
2014,12,11,16,35,0.00
2014,12,11,16,36,0.00
2014,12,11,16,37,0.00
2014,12,11,16,38,0.00
2014,12,11,16,39,0.00
2014,12,11,16,40,0.00
2014,12,11,16,41,0.00
2014,12,11,16,42,0.00
2014,12,11,16,43,0.00
2014,12,11,16,44,0.00
2014,12,11,16,45,0.00
2014,12,11,16,46,0.00
2014,12,11,16,47,0.00
2014,12,11,16,48,0.00
2014,12,11,16,49,0.00
2014,12,11,16,50,0.00
2014,12,11,16,51,0.00
2014,12,11,16,52,0.00
2014,12,11,16,53,0.00
2014,12,11,16,54,0.00
2014,12,11,16,55,0.00
2014,12,11,16,56,0.00
2014,12,11,16,57,0.00
2014,12,11,16,58,0.00
2014,12,11,16,59,0.00
2014,12,11,17,00,0.00
2014,12,11,17,01,0.00
2014,12,11,17,02,0.00
2014,12,11,17,03,0.00
2014,12,11,17,04,0.00
2014,12,11,17,05,0.00
2014,12,11,17,06,0.00
2014,12,11,17,07,0.00
2014,12,11,17,08,0.00
2014,12,11,17,09,0.00
2014,12,11,17,10,0.00
2014,12,11,17,11,0.00
2014,12,11,17,12,0.00
2014,12,11,17,13,0.00
2014,12,11,17,14,0.00
2014,12,11,17,15,0.00
2014,12,11,17,16,0.00
2014,12,11,17,17,0.00
2014,12,11,17,18,0.00
2014,12,11,17,19,0.00
2014,12,11,17,20,0.00
2014,12,11,17,21,0.00
2014,12,11,17,22,0.00
2014,12,11,17,23,0.00
2014,12,11,17,24,0.00
2014,12,11,17,25,0.00
2014,12,11,17,26,0.00
2014,12,11,17,27,0.00
2014,12,11,17,28,0.00
2014,12,11,17,29,0.00
2014,12,11,17,30,0.00
2014,12,11,17,31,0.00
2014,12,11,17,32,0.00
2014,12,11,17,33,0.00
2014,12,11,17,34,0.00
2014,12,11,17,35,0.00
2014,12,11,17,36,0.00
2014,12,11,17,37,0.00
2014,12,11,17,38,0.00
2014,12,11,17,39,0.00
2014,12,11,17,40,0.00
2014,12,11,17,41,0.00
2014,12,11,17,42,0.00
2014,12,11,17,43,0.00
2014,12,11,17,44,0.00
2014,12,11,17,45,0.00
2014,12,11,17,46,0.00
2014,12,11,17,47,0.00
2014,12,11,17,48,0.00
2014,12,11,17,49,0.00